Regional Weather Roundup
Issued by NWS

Home | Current Version | Previous Version | Graphics & Text | Print | Product List | Glossary On
Versions: 1 2 3 4 5 6 7 8 9 10 11 12 13 14 15 16 17 18 19 20 21 22 23 24 25 26 27 28 29 30 31 32 33 34 35 36 37 38 39 40 41 42 43 44 45 46 47 48 49 50
000
ASUS43 KLSX 312007
RWRMO

WEATHER SUMMARY FOR MISSOURI
NATIONAL WEATHER SERVICE SPRINGFIELD MO
300 PM CDT WED AUG 31 2016

NOTE: "FAIR" INDICATES FEW OR NO CLOUDS BELOW 12,000 FEET WITH NO
       SIGNIFICANT WEATHER AND/OR OBSTRUCTIONS TO VISIBILITY.
       CURRENT SKY AND/OR WEATHER CONDITIONS ARE NOT AVAILABLE FOR
       CHILLICOTHE AND FARMINGTON.

MOZ001>031-035>038-043-044-053-054-312100-
...NORTHERN AND WESTERN MISSOURI...

CITY           SKY/WX    TMP DP  RH WIND       PRES   REMARKS
KANSAS CTY INT CLOUDY    80  68  66 NE9       30.10F
KANSAS C DTWN  PTSUNNY   80  70  71 N10       30.08F
LEE`S SUMMIT   CLOUDY    77  70  79 N12       30.10F
ST JOSEPH      PTSUNNY   78  68  71 N12       30.11F
CHILLICOTHE      N/A     84  67  56 CALM      30.10F
KIRKSVILLE     MOSUNNY   79  64  60 N10       30.10F

$$
MOZ066>068-077>081-088>096-101>105-312100-
...SOUTHWEST MISSOURI...

CITY           SKY/WX    TMP DP  RH WIND       PRES   REMARKS
SPRINGFIELD    PTSUNNY   81  70  69 NE10      30.08R
JOPLIN         MOSUNNY   83  73  72 N9        30.06S
BRANSON        PTSUNNY   82  72  69 NE6       30.07F

$$
MOZ032>034-039>042-045>050-055>058-069>072-312100-
...CENTRAL MISSOURI...

CITY           SKY/WX    TMP DP  RH WIND       PRES   REMARKS
COLUMBIA       MOSUNNY   80  72  76 N3        30.07F
JEFFERSON CITY PTSUNNY   77  73  87 W3        30.06F
ROLLA          CLOUDY    75  73  93 NW6       30.07F
SEDALIA        CLOUDY    82  70  66 NE6       30.08F
WHITEMAN AFB   PTSUNNY   80  75  85 N9        30.07F
OSAGE BEACH    RAIN      70  69  97 W3        30.09F

$$
MOZ051-052-059>065-312100-
...EAST CENTRAL MISSOURI...

CITY           SKY/WX    TMP DP  RH WIND       PRES   REMARKS
ST LOUIS INTL  CLOUDY    82  72  71 NW10      30.04S
SPIRIT OF STL  CLOUDY    81  73  76 N6        30.03S
ST CHARLES     CLOUDY    79  77  94 W8        30.02F

$$
MOZ072>076-082>087-097>100-106>115-312100-
...SOUTH CENTRAL AND SOUTHEAST MISSOURI...

CITY           SKY/WX    TMP DP  RH WIND       PRES   REMARKS
CAPE GIRARDEAU MOSUNNY   88  69  53 N10       29.97F HX  92
FARMINGTON     PTSUNNY   83  70  64 N9        30.04F
POPLAR BLUFF   MOSUNNY   89  73  59 N10       29.97F HX  97
WEST PLAINS    CLOUDY    82  72  71 N7        30.07F

$$



USA.gov is the U.S. government's official web portal to all federal, state and local government web resources and services.